{"data":{"norad_id":63771,"intl_designator":"2025-089W","name":"STARLINK-33841","alt_names":[],"object_type":"PAYLOAD","status":"ACTIVE","operator":null,"country":"US","launch_date":"2025-04-29","launch_site_code":"AFETR","launch_vehicle":null,"mission":null,"orbit_class":"UNKNOWN","rcs_meters":null,"size_class":null,"mass_kg":null,"dimensions":null,"purposes":["comms"],"wikipedia_slug":null,"has_3d_model":false,"image_url":null,"decayed_at":null,"tle_current":{"epoch":"2026-05-24T21:28:05.658816Z","epoch_age_seconds":80321,"freshness":"FRESH","line1":"1 63771U 25089W   26144.89450994  .00019061  00000+0  69987-3 0  9991","line2":"2 63771  43.0028 334.7338 0001859 282.0951  77.9692 15.27604310 60560","mean_motion":15.2760431,"eccentricity":0.0001859,"inclination_deg":43.0028,"raan_deg":334.7338,"arg_perigee_deg":282.0951,"mean_anomaly_deg":77.9692,"bstar":0.00069987,"rev_number":6056,"period_min":94.265248570816,"perigee_km":481.70082315629,"apogee_km":484.25178508276,"semimajor_km":6861.1133041195,"source":"CELESTRAK","updated_at":"2026-05-25T13:38:20.107424Z"}}}